Time,TemperatureF,DewpointF,PressureIn,WindDirection,WindDirectionDegrees,WindSpeedMPH,WindSpeedGustMPH,Humidity,HourlyPrecipIn,Conditions,Clouds,dailyrainin,SoftwareType,DateUTC
2013-01-01 00:10:00,29.5,25.5,30.38,ENE,67,0.0,0.0,85,0.00,,,0.00,open2300-1.11,2013-01-01 08:10:00,
2013-01-01 00:20:00,29.3,25.3,30.38,ENE,67,0.0,0.0,85,0.00,,,0.00,open2300-1.11,2013-01-01 08:20:00,
2013-01-01 00:30:00,29.5,25.8,30.39,NNE,22,0.0,2.2,86,0.00,,,0.00,open2300-1.11,2013-01-01 08:30:00,
2013-01-01 00:40:00,29.8,26.2,30.40,NNE,22,0.0,2.5,86,0.00,,,0.00,open2300-1.11,2013-01-01 08:40:00,
2013-01-01 00:50:00,29.5,25.8,30.39,NNE,22,0.0,0.0,86,0.00,,,0.00,open2300-1.11,2013-01-01 08:50:00,
2013-01-01 01:10:00,29.7,26.0,30.41,NNW,337,0.0,2.5,86,0.00,,,0.00,open2300-1.11,2013-01-01 09:10:00,
2013-01-01 01:20:00,30.2,26.8,30.40,North,0,0.0,4.5,87,0.00,,,0.00,open2300-1.11,2013-01-01 09:20:00,
2013-01-01 01:30:00,30.2,26.8,30.40,NNE,22,0.0,5.4,87,0.00,,,0.00,open2300-1.11,2013-01-01 09:30:00,
2013-01-01 01:40:00,29.8,26.2,30.40,North,0,0.0,1.8,86,0.00,,,0.00,open2300-1.11,2013-01-01 09:40:00,
2013-01-01 01:50:00,29.8,26.2,30.40,NNW,337,0.0,8.1,86,0.00,,,0.00,open2300-1.11,2013-01-01 09:50:00,
2013-01-01 02:10:00,29.5,25.8,30.41,NNW,337,0.0,6.7,86,0.00,,,0.00,open2300-1.11,2013-01-01 10:10:00,
2013-01-01 02:20:00,29.5,25.8,30.41,North,0,0.0,4.2,86,0.00,,,0.00,open2300-1.11,2013-01-01 10:20:00,
2013-01-01 02:30:00,29.3,25.3,30.41,North,0,0.0,0.0,85,0.00,,,0.00,open2300-1.11,2013-01-01 10:30:00,
2013-01-01 02:40:00,29.1,25.2,30.41,NNE,22,0.0,1.6,85,0.00,,,0.00,open2300-1.11,2013-01-01 10:40:00,
2013-01-01 02:50:00,29.3,25.3,30.42,NNW,337,0.0,5.6,85,0.00,,,0.00,open2300-1.11,2013-01-01 10:50:00,
2013-01-01 03:10:00,29.1,25.2,30.41,NNE,22,0.0,0.0,85,0.00,,,0.00,open2300-1.11,2013-01-01 11:10:00,
2013-01-01 03:20:00,28.6,24.6,30.41,NNE,22,0.0,0.0,85,0.00,,,0.00,open2300-1.11,2013-01-01 11:20:00,
2013-01-01 03:30:00,28.0,24.1,30.41,NNE,22,0.0,0.0,85,0.00,,,0.00,open2300-1.11,2013-01-01 11:30:00,
2013-01-01 03:40:00,27.5,23.5,30.42,NNE,22,0.0,0.0,85,0.00,,,0.00,open2300-1.11,2013-01-01 11:40:00,
2013-01-01 03:50:00,27.1,23.2,30.41,NNE,22,0.0,0.0,85,0.00,,,0.00,open2300-1.11,2013-01-01 11:50:00,
2013-01-01 04:10:00,26.6,22.6,30.41,NNE,22,0.0,0.0,85,0.00,,,0.00,open2300-1.11,2013-01-01 12:10:00,
2013-01-01 04:20:00,26.2,22.3,30.41,NNE,22,0.0,0.0,85,0.00,,,0.00,open2300-1.11,2013-01-01 12:20:00,
2013-01-01 04:30:00,25.7,21.8,30.41,NNE,22,0.0,0.0,85,0.00,,,0.00,open2300-1.11,2013-01-01 12:30:00,
2013-01-01 04:40:00,25.5,21.6,30.40,NNE,22,0.0,0.0,85,0.00,,,0.00,open2300-1.11,2013-01-01 12:40:00,
2013-01-01 04:50:00,25.3,21.7,30.39,NNE,22,0.0,0.0,86,0.00,,,0.00,open2300-1.11,2013-01-01 12:50:00,
2013-01-01 05:10:00,24.6,20.8,30.40,NNE,22,0.0,0.0,85,0.00,,,0.00,open2300-1.11,2013-01-01 13:10:00,
2013-01-01 05:20:00,24.6,20.8,30.40,NNE,22,0.0,0.0,85,0.00,,,0.00,open2300-1.11,2013-01-01 13:20:00,
2013-01-01 05:30:00,24.6,21.0,30.38,NNE,22,0.0,0.0,86,0.00,,,0.00,open2300-1.11,2013-01-01 13:30:00,
2013-01-01 05:40:00,24.4,20.8,30.39,NNE,22,0.0,0.0,86,0.00,,,0.00,open2300-1.11,2013-01-01 13:40:00,
2013-01-01 05:50:00,24.6,21.0,30.39,NNE,22,0.0,0.0,86,0.00,,,0.00,open2300-1.11,2013-01-01 13:50:00,
2013-01-01 06:00:00,24.6,21.0,30.39,NNE,22,0.0,0.0,86,0.00,,,0.00,open2300-1.11,2013-01-01 14:00:00,
2013-01-01 06:10:00,24.6,21.0,30.39,NNE,22,0.0,0.0,86,0.00,,,0.00,open2300-1.11,2013-01-01 14:10:00,
2013-01-01 06:20:00,24.4,20.8,30.39,NNE,22,0.0,0.0,86,0.00,,,0.00,open2300-1.11,2013-01-01 14:20:00,
2013-01-01 06:30:00,24.4,20.8,30.39,NNE,22,0.0,0.0,86,0.00,,,0.00,open2300-1.11,2013-01-01 14:30:00,
2013-01-01 06:40:00,24.4,20.8,30.40,NNE,22,0.0,0.0,86,0.00,,,0.00,open2300-1.11,2013-01-01 14:40:00,
2013-01-01 06:50:00,24.4,21.1,30.41,NNW,337,0.0,0.0,87,0.00,,,0.00,open2300-1.11,2013-01-01 14:50:00,
2013-01-01 07:00:00,24.6,21.3,30.41,NNW,337,0.0,0.0,87,0.00,,,0.00,open2300-1.11,2013-01-01 15:00:00,
2013-01-01 07:10:00,25.0,21.6,30.41,NNW,337,0.0,0.0,87,0.00,,,0.00,open2300-1.11,2013-01-01 15:10:00,
2013-01-01 07:20:00,25.0,21.6,30.41,NNW,337,0.0,0.0,87,0.00,,,0.00,open2300-1.11,2013-01-01 15:20:00,
2013-01-01 07:30:00,24.4,21.1,30.41,NNW,337,0.0,0.0,87,0.00,,,0.00,open2300-1.11,2013-01-01 15:30:00,
2013-01-01 07:40:00,23.9,20.6,30.41,NNW,337,0.0,0.0,87,0.00,,,0.00,open2300-1.11,2013-01-01 15:40:00,
2013-01-01 07:50:00,23.5,20.2,30.42,NNW,337,0.0,0.0,87,0.00,,,0.00,open2300-1.11,2013-01-01 15:50:00,
2013-01-01 08:00:00,23.5,20.2,30.42,NNW,337,0.0,0.0,87,0.00,,,0.00,open2300-1.11,2013-01-01 16:00:00,
2013-01-01 08:10:00,23.5,20.2,30.42,NNW,337,0.0,0.0,87,0.00,,,0.00,open2300-1.11,2013-01-01 16:10:00,
2013-01-01 08:20:00,23.5,20.2,30.42,NNW,337,0.0,0.0,87,0.00,,,0.00,open2300-1.11,2013-01-01 16:20:00,
2013-01-01 08:30:00,24.1,20.8,30.42,NNW,337,0.0,0.0,87,0.00,,,0.00,open2300-1.11,2013-01-01 16:30:00,
2013-01-01 08:40:00,24.8,21.5,30.43,NNW,337,0.0,0.0,87,0.00,,,0.00,open2300-1.11,2013-01-01 16:40:00,
2013-01-01 08:50:00,25.7,22.6,30.44,NNW,337,0.0,0.0,88,0.00,,,0.00,open2300-1.11,2013-01-01 16:50:00,
2013-01-01 09:00:00,26.8,23.7,30.44,NNW,337,0.0,0.0,88,0.00,,,0.00,open2300-1.11,2013-01-01 17:00:00,
2013-01-01 09:10:00,27.9,24.8,30.44,NNW,337,0.0,0.0,88,0.00,,,0.00,open2300-1.11,2013-01-01 17:10:00,
2013-01-01 09:20:00,28.9,25.8,30.44,North,0,0.0,0.0,88,0.00,,,0.00,open2300-1.11,2013-01-01 17:20:00,
2013-01-01 09:30:00,29.5,26.4,30.44,NW,315,0.0,0.0,88,0.00,,,0.00,open2300-1.11,2013-01-01 17:30:00,
2013-01-01 09:40:00,30.2,27.1,30.44,North,0,0.0,0.0,88,0.00,,,0.00,open2300-1.11,2013-01-01 17:40:00,
2013-01-01 09:50:00,30.7,27.6,30.44,North,0,0.0,0.0,88,0.00,,,0.00,open2300-1.11,2013-01-01 17:50:00,
2013-01-01 10:00:00,31.3,28.2,30.44,North,0,0.0,0.0,88,0.00,,,0.00,open2300-1.11,2013-01-01 18:00:00,
2013-01-01 10:10:00,32.2,29.1,30.44,NNE,22,0.0,0.0,88,0.00,,,0.00,open2300-1.11,2013-01-01 18:10:00,
2013-01-01 10:20:00,33.1,29.9,30.45,WNW,292,0.0,0.0,88,0.00,,,0.00,open2300-1.11,2013-01-01 18:20:00,
2013-01-01 10:30:00,34.0,30.4,30.45,NNW,337,0.0,3.8,87,0.00,,,0.00,open2300-1.11,2013-01-01 18:30:00,
2013-01-01 10:40:00,34.3,30.2,30.45,NNE,22,0.0,0.0,85,0.00,,,0.00,open2300-1.11,2013-01-01 18:40:00,
2013-01-01 10:50:00,34.5,29.8,30.44,North,0,0.0,5.4,83,0.00,,,0.00,open2300-1.11,2013-01-01 18:50:00,
2013-01-01 11:00:00,34.9,29.9,30.44,North,0,5.1,5.6,82,0.00,,,0.00,open2300-1.11,2013-01-01 19:00:00,
2013-01-01 11:10:00,35.4,30.1,30.43,North,0,0.0,5.1,81,0.00,,,0.00,open2300-1.11,2013-01-01 19:10:00,
2013-01-01 11:20:00,36.3,30.7,30.42,NNE,22,0.0,0.0,80,0.00,,,0.00,open2300-1.11,2013-01-01 19:20:00,
2013-01-01 11:30:00,37.0,30.8,30.42,East,90,0.0,0.0,78,0.00,,,0.00,open2300-1.11,2013-01-01 19:30:00,
2013-01-01 11:40:00,37.4,30.9,30.41,ENE,67,0.0,0.9,77,0.00,,,0.00,open2300-1.11,2013-01-01 19:40:00,
2013-01-01 11:50:00,37.8,30.5,30.41,NE,45,0.0,0.0,75,0.00,,,0.00,open2300-1.11,2013-01-01 19:50:00,
2013-01-01 12:00:00,37.9,30.7,30.41,East,90,0.0,1.6,75,0.00,,,0.00,open2300-1.11,2013-01-01 20:00:00,
2013-01-01 12:10:00,37.9,30.4,30.40,NE,45,0.0,0.0,74,0.00,,,0.00,open2300-1.11,2013-01-01 20:10:00,
2013-01-01 12:20:00,38.1,30.5,30.39,ENE,67,0.0,1.6,74,0.00,,,0.00,open2300-1.11,2013-01-01 20:20:00,
2013-01-01 12:30:00,38.3,30.4,30.39,NNE,22,5.4,6.5,73,0.00,,,0.00,open2300-1.11,2013-01-01 20:30:00,
2013-01-01 12:40:00,38.1,30.5,30.38,ENE,67,0.0,6.0,74,0.00,,,0.00,open2300-1.11,2013-01-01 20:40:00,
2013-01-01 12:50:00,38.1,30.5,30.38,NNW,337,0.0,0.0,74,0.00,,,0.00,open2300-1.11,2013-01-01 20:50:00,
2013-01-01 13:00:00,38.1,30.2,30.37,NE,45,0.0,4.5,73,0.00,,,0.00,open2300-1.11,2013-01-01 21:00:00,
2013-01-01 13:10:00,38.1,30.2,30.37,NW,315,0.0,2.5,73,0.00,,,0.00,open2300-1.11,2013-01-01 21:10:00,
2013-01-01 13:20:00,38.1,29.9,30.36,NE,45,0.0,7.4,72,0.00,,,0.00,open2300-1.11,2013-01-01 21:20:00,
2013-01-01 13:30:00,38.5,29.9,30.36,North,0,0.0,7.4,71,0.00,,,0.00,open2300-1.11,2013-01-01 21:30:00,
2013-01-01 13:40:00,38.5,29.9,30.36,NNE,22,6.3,8.3,71,0.00,,,0.00,open2300-1.11,2013-01-01 21:40:00,
2013-01-01 13:50:00,38.5,29.9,30.36,North,0,6.3,6.5,71,0.00,,,0.00,open2300-1.11,2013-01-01 21:50:00,
2013-01-01 14:00:00,38.8,30.2,30.36,NNE,22,5.8,6.5,71,0.00,,,0.00,open2300-1.11,2013-01-01 22:00:00,
2013-01-01 14:10:00,39.0,30.4,30.36,North,0,4.5,7.4,71,0.00,,,0.00,open2300-1.11,2013-01-01 22:10:00,
2013-01-01 14:20:00,39.0,30.0,30.36,NW,315,5.6,7.2,70,0.00,,,0.00,open2300-1.11,2013-01-01 22:20:00,
2013-01-01 14:30:00,39.0,30.0,30.36,North,0,3.8,7.4,70,0.00,,,0.00,open2300-1.11,2013-01-01 22:30:00,
2013-01-01 14:40:00,39.0,29.7,30.36,NNW,337,5.8,8.9,69,0.00,,,0.00,open2300-1.11,2013-01-01 22:40:00,
2013-01-01 14:50:00,39.0,29.7,30.36,NNW,337,8.5,8.5,69,0.00,,,0.00,open2300-1.11,2013-01-01 22:50:00,
2013-01-01 15:00:00,38.8,29.5,30.36,NNE,22,6.0,8.5,69,0.00,,,0.00,open2300-1.11,2013-01-01 23:00:00,
2013-01-01 15:10:00,38.8,29.9,30.36,NNE,22,0.0,6.5,70,0.00,,,0.00,open2300-1.11,2013-01-01 23:10:00,
2013-01-01 15:20:00,38.8,29.5,30.36,NNE,22,4.5,7.6,69,0.00,,,0.00,open2300-1.11,2013-01-01 23:20:00,
2013-01-01 15:30:00,38.5,29.2,30.36,NNE,22,4.0,8.1,69,0.00,,,0.00,open2300-1.11,2013-01-01 23:30:00,
2013-01-01 15:40:00,38.5,29.2,30.36,North,0,0.0,6.5,69,0.00,,,0.00,open2300-1.11,2013-01-01 23:40:00,
2013-01-01 15:50:00,38.5,29.2,30.36,North,0,0.0,6.7,69,0.00,,,0.00,open2300-1.11,2013-01-01 23:50:00,
2013-01-01 16:00:00,38.3,29.0,30.36,North,0,0.0,6.9,69,0.00,,,0.00,open2300-1.11,2013-01-02 00:00:00,
2013-01-01 16:10:00,38.1,28.9,30.36,NNW,337,0.0,0.7,69,0.00,,,0.00,open2300-1.11,2013-01-02 00:10:00,
2013-01-01 16:20:00,37.8,28.5,30.36,NW,315,0.0,0.0,69,0.00,,,0.00,open2300-1.11,2013-01-02 00:20:00,
2013-01-01 16:30:00,37.4,28.6,30.36,NW,315,0.0,0.0,70,0.00,,,0.00,open2300-1.11,2013-01-02 00:30:00,
2013-01-01 16:40:00,37.0,28.2,30.36,NW,315,0.0,0.0,70,0.00,,,0.00,open2300-1.11,2013-01-02 00:40:00,
2013-01-01 16:50:00,36.5,28.0,30.36,NW,315,0.0,0.0,71,0.00,,,0.00,open2300-1.11,2013-01-02 00:50:00,
2013-01-01 17:00:00,36.0,27.5,30.36,NW,315,0.0,0.0,71,0.00,,,0.00,open2300-1.11,2013-01-02 01:00:00,
2013-01-01 17:10:00,35.2,27.1,30.36,NW,315,0.0,0.0,72,0.00,,,0.00,open2300-1.11,2013-01-02 01:10:00,
2013-01-01 17:20:00,34.3,26.5,30.36,NW,315,0.0,0.0,73,0.00,,,0.00,open2300-1.11,2013-01-02 01:20:00,
2013-01-01 17:30:00,33.6,25.8,30.36,NW,315,0.0,0.0,73,0.00,,,0.00,open2300-1.11,2013-01-02 01:30:00,
2013-01-01 17:40:00,32.7,25.3,30.36,NW,315,0.0,0.0,74,0.00,,,0.00,open2300-1.11,2013-01-02 01:40:00,
2013-01-01 17:50:00,32.2,25.1,30.36,NW,315,0.0,0.0,75,0.00,,,0.00,open2300-1.11,2013-01-02 01:50:00,
2013-01-01 18:00:00,31.6,24.9,30.36,NW,315,0.0,0.0,76,0.00,,,0.00,open2300-1.11,2013-01-02 02:00:00,
2013-01-01 18:10:00,31.3,24.9,30.36,NW,315,0.0,0.0,77,0.00,,,0.00,open2300-1.11,2013-01-02 02:10:00,
2013-01-01 18:20:00,30.7,24.4,30.36,NW,315,0.0,0.0,77,0.00,,,0.00,open2300-1.11,2013-01-02 02:20:00,
2013-01-01 18:30:00,30.4,24.3,30.36,NW,315,0.0,0.0,78,0.00,,,0.00,open2300-1.11,2013-01-02 02:30:00,
2013-01-01 18:40:00,30.0,24.0,30.36,NW,315,0.0,0.0,78,0.00,,,0.00,open2300-1.11,2013-01-02 02:40:00,
2013-01-01 18:50:00,29.5,23.8,30.36,NW,315,0.0,0.0,79,0.00,,,0.00,open2300-1.11,2013-01-02 02:50:00,
2013-01-01 19:00:00,29.1,23.4,30.35,NW,315,0.0,0.0,79,0.00,,,0.00,open2300-1.11,2013-01-02 03:00:00,
2013-01-01 19:10:00,28.8,23.4,30.35,NW,315,0.0,0.0,80,0.00,,,0.00,open2300-1.11,2013-01-02 03:10:00,
2013-01-01 19:20:00,28.6,23.2,30.35,NW,315,0.0,0.0,80,0.00,,,0.00,open2300-1.11,2013-01-02 03:20:00,
2013-01-01 19:30:00,28.2,23.1,30.35,NW,315,0.0,0.0,81,0.00,,,0.00,open2300-1.11,2013-01-02 03:30:00,
2013-01-01 19:40:00,28.0,22.9,30.35,NW,315,0.0,0.0,81,0.00,,,0.00,open2300-1.11,2013-01-02 03:40:00,
2013-01-01 19:50:00,27.7,22.6,30.35,NW,315,0.0,0.0,81,0.00,,,0.00,open2300-1.11,2013-01-02 03:50:00,
2013-01-01 20:00:00,27.7,22.9,30.35,NNW,337,0.0,0.0,82,0.00,,,0.00,open2300-1.11,2013-01-02 04:00:00,
2013-01-01 20:10:00,27.7,22.9,30.35,NNW,337,0.0,0.0,82,0.00,,,0.00,open2300-1.11,2013-01-02 04:10:00,
2013-01-01 20:20:00,27.7,22.9,30.35,North,0,0.0,0.0,82,0.00,,,0.00,open2300-1.11,2013-01-02 04:20:00,
2013-01-01 20:30:00,28.0,23.5,30.35,North,0,0.0,0.0,83,0.00,,,0.00,open2300-1.11,2013-01-02 04:30:00,
2013-01-01 20:40:00,28.2,23.7,30.35,North,0,0.0,0.0,83,0.00,,,0.00,open2300-1.11,2013-01-02 04:40:00,
2013-01-01 20:50:00,28.2,23.7,30.36,North,0,0.0,0.0,83,0.00,,,0.00,open2300-1.11,2013-01-02 04:50:00,
2013-01-01 21:00:00,28.2,23.7,30.35,North,0,0.0,0.0,83,0.00,,,0.00,open2300-1.11,2013-01-02 05:00:00,
2013-01-01 21:10:00,28.0,23.5,30.35,North,0,0.0,0.0,83,0.00,,,0.00,open2300-1.11,2013-01-02 05:10:00,
2013-01-01 21:20:00,28.0,23.5,30.35,North,0,0.0,0.0,83,0.00,,,0.00,open2300-1.11,2013-01-02 05:20:00,
2013-01-01 21:30:00,27.3,22.8,30.34,NNE,22,0.0,0.0,83,0.00,,,0.00,open2300-1.11,2013-01-02 05:30:00,
2013-01-01 21:40:00,27.3,22.8,30.34,NNW,337,0.0,0.0,83,0.00,,,0.00,open2300-1.11,2013-01-02 05:40:00,
2013-01-01 21:50:00,28.0,23.5,30.34,NNW,337,0.0,0.0,83,0.00,,,0.00,open2300-1.11,2013-01-02 05:50:00,
2013-01-01 22:00:00,28.0,23.5,30.34,NNW,337,0.0,0.0,83,0.00,,,0.00,open2300-1.11,2013-01-02 06:00:00,
2013-01-01 22:10:00,28.2,23.7,30.34,NNW,337,0.0,0.0,83,0.00,,,0.00,open2300-1.11,2013-01-02 06:10:00,
2013-01-01 22:20:00,27.7,22.9,30.34,NNW,337,0.0,0.0,82,0.00,,,0.00,open2300-1.11,2013-01-02 06:20:00,
2013-01-01 22:30:00,27.1,22.3,30.34,NNW,337,0.0,0.0,82,0.00,,,0.00,open2300-1.11,2013-01-02 06:30:00,
2013-01-01 22:40:00,26.8,22.0,30.33,NNW,337,0.0,0.0,82,0.00,,,0.00,open2300-1.11,2013-01-02 06:40:00,
2013-01-01 22:50:00,26.4,21.6,30.34,NNW,337,0.0,0.0,82,0.00,,,0.00,open2300-1.11,2013-01-02 06:50:00,
2013-01-01 23:10:00,25.7,21.0,30.33,NNW,337,0.0,0.0,82,0.00,,,0.00,open2300-1.11,2013-01-02 07:10:00,
2013-01-01 23:20:00,25.5,21.1,30.33,NNW,337,0.0,0.0,83,0.00,,,0.00,open2300-1.11,2013-01-02 07:20:00,
2013-01-01 23:30:00,25.5,21.1,30.33,North,0,0.0,0.0,83,0.00,,,0.00,open2300-1.11,2013-01-02 07:30:00,
2013-01-01 23:40:00,25.3,20.9,30.33,North,0,0.0,0.0,83,0.00,,,0.00,open2300-1.11,2013-01-02 07:40:00,
2013-01-01 23:50:00,25.0,20.5,30.33,North,0,0.0,0.0,83,0.00,,,0.00,open2300-1.11,2013-01-02 07:50:00,